Change the Weather History Date:

Wednesday, January 15, 2014

  Actual Average Record
Temperature  
Mean Temperature 34 °F 27 °F  
Max Temperature 43 °F 33 °F 44 °F (2011)
Min Temperature 24 °F 21 °F -8 °F (2005)
Degree Days  
Heating Degree Days 31 38  
Month to date heating degree days 503 582  
Since 1 July heating degree days 3714 3809  
Cooling Degree Days 0 0  
Month to date cooling degree days 0 0  
Year to date cooling degree days 0 0  
Moisture  
Dew Point 27 °F    
Average Humidity 84    
Maximum Humidity 100    
Minimum Humidity 67    
Precipitation  
Precipitation 0.00 in 0.09 in 0.34 in (2011)
Month to date precipitation 1.04 1.49  
Year to date precipitation 1.04 1.49  
Sea Level Pressure  
Sea Level Pressure 30.51 in    
Wind  
Wind Speed 2 mph (North)    
Max Wind Speed 8 mph    
Max Gust Speed 9 mph    
Visibility 6 miles    
Events Fog    
T = Trace of Precipitation, MM = Missing Value Source: NWS Daily Summary

Daily Weather History Graph

Daily Weather History Graph

Search for Another Location

Airport or City:

Trip Planner

Search our weather history database for the weather conditions in past years. The results will help you decide how hot, cold, wet, or windy it might be!

Date:

Astronomy

Jan. 15, 2014 Rise Set
Actual Time 7:34 AM PST 4:24 PM PST
Civil Twilight 6:59 AM PST 4:59 PM PST
Nautical Twilight 6:20 AM PST 5:38 PM PST
Astronomical Twilight 5:43 AM PST 6:15 PM PST
Moon 4:31 PM PST (1/15) 6:49 AM PST (1/15)
Length of Visible Light 10h 00m
Length of Day
8h 50m
Full, 100% of the Moon is Illuminated
Jan 15
Full
Jan 15
Full
Jan 23
Last Quarter
Jan 30
New
Feb 6
First Quarter

Hourly Weather History & Observations

Time (PST) Temp. Windchill Dew Point Humidity Pressure Visibility Wind Dir Wind Speed Gust Speed Precip Events Conditions
12:53 AM 28.0 °F - 26.1 °F 92% 30.50 in 0.2 mi Calm Calm - N/A Fog Light Freezing Fog
1:15 AM 28.0 °F 24.2 °F 26.1 °F 92% 30.42 in 1.2 mi SSE 3.5 mph - N/A   Overcast
1:27 AM 28.0 °F - 27.0 °F 96% 30.42 in 3.0 mi Calm Calm - N/A   Mostly Cloudy
1:37 AM 27.0 °F - 26.1 °F 96% 30.43 in 5.0 mi Calm Calm - N/A   Scattered Clouds
1:53 AM 28.0 °F - 26.1 °F 92% 30.49 in 5.0 mi Calm Calm - N/A   Clear
2:01 AM 28.0 °F - 26.1 °F 92% 30.42 in 3.0 mi Calm Calm - N/A   Scattered Clouds
2:04 AM 28.0 °F - 26.1 °F 92% 30.42 in 1.2 mi Calm Calm - N/A   Mostly Cloudy
2:12 AM 28.0 °F 24.2 °F 26.1 °F 92% 30.43 in 0.5 mi NE 3.5 mph - N/A Fog Light Freezing Fog
2:18 AM 28.0 °F 22.8 °F 26.1 °F 92% 30.43 in 3.0 mi NE 4.6 mph - N/A   Mostly Cloudy
2:45 AM 28.0 °F - 27.0 °F 96% 30.44 in 7.0 mi Calm Calm - N/A   Scattered Clouds
2:53 AM 28.9 °F - 27.0 °F 92% 30.49 in 8.0 mi Calm Calm - N/A   Partly Cloudy
3:53 AM 28.9 °F 25.2 °F 28.0 °F 96% 30.49 in 8.0 mi SSE 3.5 mph - N/A   Clear
4:53 AM 27.0 °F - 26.1 °F 96% 30.47 in 8.0 mi Calm Calm - N/A   Clear
5:53 AM 28.0 °F 24.2 °F 26.1 °F 92% 30.48 in 9.0 mi NE 3.5 mph - N/A   Clear
6:53 AM 27.0 °F 21.6 °F 25.0 °F 92% 30.50 in 9.0 mi NNE 4.6 mph - N/A   Clear
7:53 AM 25.0 °F 20.7 °F 23.0 °F 92% 30.52 in 8.0 mi East 3.5 mph - N/A   Clear
8:53 AM 30.0 °F - 28.0 °F 92% 30.52 in 6.0 mi Calm Calm - N/A   Clear
9:53 AM 34.0 °F - 33.1 °F 96% 30.54 in 6.0 mi Calm Calm - N/A   Clear
10:53 AM 37.9 °F - 33.1 °F 83% 30.53 in 10.0 mi Calm Calm - N/A   Clear
11:53 AM 41.0 °F - 33.1 °F 73% 30.53 in 10.0 mi Calm Calm - N/A   Clear
12:53 PM 41.0 °F - 33.1 °F 73% 30.52 in 10.0 mi Calm Calm - N/A   Clear
1:53 PM 42.1 °F - 32.0 °F 67% 30.51 in 10.0 mi Calm Calm - N/A   Clear
2:53 PM 42.1 °F - 32.0 °F 67% 30.53 in 10.0 mi Calm Calm - N/A   Clear
3:53 PM 39.0 °F 35.7 °F 32.0 °F 76% 30.55 in 10.0 mi NNW 4.6 mph - N/A   Clear
4:53 PM 30.9 °F 27.5 °F 28.0 °F 89% 30.57 in 10.0 mi NNW 3.5 mph - N/A   Clear
5:53 PM 28.9 °F 21.9 °F 26.1 °F 89% 30.57 in 10.0 mi NW 6.9 mph - N/A   Clear
6:53 PM 28.0 °F 21.7 °F 26.1 °F 92% 30.57 in 8.0 mi NW 5.8 mph - N/A   Clear
7:53 PM 28.0 °F 22.8 °F 27.0 °F 96% 30.57 in 7.0 mi North 4.6 mph - N/A   Clear
8:53 PM 25.0 °F 18.1 °F 23.0 °F 92% 30.58 in 6.0 mi NNW 5.8 mph - N/A   Clear
9:44 PM 27.0 °F - 26.1 °F 96% 30.51 in 1.8 mi Calm Calm - N/A   Clear
9:53 PM 26.1 °F 21.9 °F 24.1 °F 92% 30.58 in 1.0 mi NNW 3.5 mph - N/A   Clear
9:58 PM 25.0 °F - 23.0 °F 92% 30.51 in 3.0 mi Calm Calm - N/A   Clear
10:30 PM 24.1 °F 18.2 °F 21.9 °F 91% 30.52 in 6.0 mi NW 4.6 mph - N/A   Scattered Clouds
10:39 PM 24.1 °F 19.7 °F 21.9 °F 91% 30.52 in 3.0 mi NW 3.5 mph - N/A   Mostly Cloudy
10:42 PM 24.1 °F - 21.9 °F 91% 30.52 in 1.5 mi Calm Calm - N/A   Mostly Cloudy
10:51 PM 24.8 °F - 23.0 °F 93% 30.52 in 0.5 mi Calm Calm - N/A Fog Light Freezing Fog
10:53 PM 25.0 °F - 23.0 °F 92% 30.59 in 0.2 mi Calm Calm - N/A Fog Light Freezing Fog
11:53 PM 26.1 °F 20.5 °F 24.1 °F 92% 30.59 in 0.2 mi NW 4.6 mph - N/A Fog Light Freezing Fog